User: anonymous   Login
Location: Amon Carter Post Office
(32.8281°N, 97.0484°W)
Time: 01:58:54
(UTC+00:00)
Language:

RESURS O1 DEB - Orbit

View from above orbital plane
View from above orbital plane
View from above satellite
View from above satellite

Ground track
Ground track

The orbit data is extracted from the following two-line orbital elements,

1 49512U 94074GG  22278.42247075  .00110224  00000-0  87571-2 0  9997
2 49512  97.9033 331.3964 0007635 114.9124 245.2892 14.99886462 59571
Epoch (UTC): 05 October 2022 10:08:21
Eccentricity: 0.0007635
inclination: 97.9033°
perigee height: 562 km
apogee height: 572 km
right ascension of ascending node: 331.3964°
argument of perigee: 114.9124°
revolutions per day: 14.99886462
mean anomaly at epoch: 245.2892°
orbit number at epoch: 5957

The dashed part of the orbit path shows where the satellite is in the earth's shadow,  

DLR